Tracking 29892 objects as of 21-Nov-2024
HD Live streaming from Space Station
objects crossing your sky now

CZ-6A DEB

Track CZ-6A DEB now!
10-day predictions


NORAD ID: 56675
Int'l Code: 2022-151AHB
Perigee: 813.3 km
Apogee: 928.0 km
Inclination: 98.9 °
Period: 102.2 minutes
Semi major axis: 7241 km
RCS: Unknown
Launch date: November 11, 2022
Source: People's Republic of China (PRC)
Launch site: Taiyaun Space Center, China (TSC)

Note: This is SATELLITE DEBRIS
Your satellite tracking list
Your tracking list is empty




NASA's NSSDC Master Catalog

Two Line Element Set (TLE):
1 56675U 22151AHB 24321.79915067  .00001683  00000-0  97191-3 0  9994
2 56675  98.8713 323.3151 0079180 123.3604 237.5176 14.08794313 85531
Source of the keplerian elements: AFSPC